When you browse on this site, cookies collect data to enhance your experience and personalize the content and advertising you see.
Visit our Privacy Policy to learn more. By continuing to use the site, you agree to this use of cookies and data.
  • In Romania
  • List of Countries
  • For 7 days
  • Water Temperature
  • Weather Map
  • Weather Widgets
  • user-avatar
    Login

    Hourly Weather Nyiregyhaza

    Today, 13 December, Friday

    Time Temperature Precipitation Wind Pressure Humidity
    00:00 +3°C° 0.1 mm 3 mps 743 mmHg 83%
    01:00 +3°C° 0.1 mm 3 mps 742 mmHg 83%
    02:00 +3°C° 0.4 mm 3 mps 741 mmHg 84%
    03:00 +3°C° 0.4 mm 3 mps 741 mmHg 85%
    04:00 +3°C° 0.4 mm 4 mps 740 mmHg 85%
    05:00 +4°C° 0.8 mm 4 mps 740 mmHg 86%
    06:00 +4°C° 0.8 mm 4 mps 739 mmHg 87%
    07:00 +4°C° 0.8 mm 4 mps 739 mmHg 87%
    08:00 +4°C° 0.6 mm 4 mps 739 mmHg 87%
    09:00 +4°C° 0.6 mm 4 mps 738 mmHg 87%
    10:00 +5°C° 0.6 mm 4 mps 738 mmHg 87%
    11:00 +5°C° 0.2 mm 4 mps 737 mmHg 86%
    12:00 +5°C° 0.2 mm 4 mps 737 mmHg 85%
    13:00 +5°C° 0.2 mm 3 mps 737 mmHg 85%
    14:00 +5°C° 0.1 mm 3 mps 736 mmHg 84%
    15:00 +5°C° 0.1 mm 3 mps 736 mmHg 84%
    16:00 +5°C° 0.1 mm 3 mps 736 mmHg 84%
    17:00 +5°C° 0 mm 3 mps 736 mmHg 84%
    18:00 +5°C° 0 mm 3 mps 736 mmHg 83%
    19:00 +5°C° 0 mm 3 mps 736 mmHg 83%
    20:00 +4°C° 0 mm 3 mps 736 mmHg 84%
    21:00 +4°C° 0 mm 3 mps 736 mmHg 85%
    22:00 +4°C° 0 mm 3 mps 736 mmHg 86%
    23:00 +3°C° 0 mm 3 mps 736 mmHg 87%

    Tomorrow, 14 December, Saturday

    Time Temperature Precipitation Wind Pressure Humidity
    00:00 +3°C° 0 mm 3 mps 736 mmHg 87%
    01:00 +3°C° 0 mm 3 mps 737 mmHg 88%
    02:00 +3°C° 0 mm 3 mps 737 mmHg 89%
    03:00 +3°C° 0 mm 3 mps 737 mmHg 89%
    04:00 +3°C° 0 mm 3 mps 737 mmHg 90%
    05:00 +2°C° 0 mm 3 mps 737 mmHg 90%
    06:00 +2°C° 0 mm 3 mps 738 mmHg 89%
    07:00 +2°C° 0 mm 3 mps 738 mmHg 89%
    08:00 +4°C° 0 mm 2 mps 739 mmHg 87%
    09:00 +5°C° 0 mm 2 mps 739 mmHg 84%
    10:00 +6°C° 0 mm 1 mps 740 mmHg 82%
    11:00 +6°C° 0 mm 2 mps 741 mmHg 80%
    12:00 +7°C° 0 mm 2 mps 741 mmHg 78%
    13:00 +7°C° 0 mm 2 mps 741 mmHg 76%
    14:00 +7°C° 0 mm 2 mps 742 mmHg 78%
    15:00 +6°C° 0 mm 2 mps 743 mmHg 80%
    16:00 +6°C° 0 mm 2 mps 744 mmHg 82%
    17:00 +4°C° 0 mm 3 mps 744 mmHg 85%
    18:00 +4°C° 0 mm 3 mps 745 mmHg 88%
    19:00 +4°C° 0 mm 4 mps 746 mmHg 91%
    20:00 +3°C° 0 mm 4 mps 747 mmHg 89%
    21:00 +2°C° 0 mm 5 mps 747 mmHg 87%
    22:00 +2°C° 0 mm 5 mps 748 mmHg 86%
    23:00 +2°C° 0 mm 5 mps 749 mmHg 84%

    Day after tomorrow, 15 December, Sunday

    Time Temperature Precipitation Wind Pressure Humidity
    00:00 +2°C° 0 mm 5 mps 750 mmHg 83%
    01:00 +1°C° 0 mm 4 mps 750 mmHg 82%
    02:00 +1°C° 0 mm 4 mps 751 mmHg 84%
    03:00 +2°C° 0 mm 3 mps 751 mmHg 86%
    04:00 +1°C° 0 mm 3 mps 751 mmHg 88%
    05:00 +1°C° 0 mm 3 mps 752 mmHg 90%
    06:00 +1°C° 0 mm 3 mps 752 mmHg 91%
    07:00 +1°C° 0 mm 3 mps 753 mmHg 92%
    08:00 +2°C° 0 mm 3 mps 753 mmHg 90%
    09:00 +3°C° 0 mm 3 mps 753 mmHg 88%
    10:00 +4°C° 0 mm 4 mps 754 mmHg 86%
    11:00 +4°C° 0 mm 3 mps 754 mmHg 84%
    12:00 +6°C° 0 mm 2 mps 754 mmHg 82%
    13:00 +7°C° 0 mm 2 mps 754 mmHg 81%
    14:00 +6°C° 0 mm 2 mps 754 mmHg 82%
    15:00 +6°C° 0 mm 2 mps 754 mmHg 84%
    16:00 +5°C° 0 mm 2 mps 754 mmHg 86%
    17:00 +5°C° 0 mm 2 mps 755 mmHg 85%
    18:00 +5°C° 0 mm 2 mps 755 mmHg 84%
    19:00 +5°C° 0 mm 1 mps 755 mmHg 83%
    20:00 +5°C° 0 mm 1 mps 755 mmHg 82%
    21:00 +5°C° 0 mm 2 mps 755 mmHg 81%
    22:00 +5°C° 0 mm 2 mps 755 mmHg 81%
    23:00 +5°C° 0 mm 2 mps 755 mmHg 81%

    16 December, Monday

    Time Temperature Precipitation Wind Pressure Humidity
    00:00 +4°C° 0 mm 2 mps 756 mmHg 82%
    01:00 +4°C° 0 mm 2 mps 756 mmHg 82%
    02:00 +4°C° 0 mm 2 mps 756 mmHg 84%
    03:00 +4°C° 0 mm 2 mps 756 mmHg 85%
    04:00 +3°C° 0 mm 2 mps 756 mmHg 86%
    05:00 +3°C° 0 mm 2 mps 757 mmHg 87%
    06:00 +3°C° 0 mm 2 mps 757 mmHg 88%
    07:00 +4°C° 0 mm 1 mps 757 mmHg 89%
    08:00 +4°C° 0 mm 2 mps 757 mmHg 85%
    09:00 +5°C° 0 mm 2 mps 757 mmHg 82%
    10:00 +6°C° 0 mm 2 mps 758 mmHg 78%
    11:00 +7°C° 0 mm 1 mps 757 mmHg 75%
    12:00 +8°C° 0 mm 1 mps 757 mmHg 72%
    13:00 +9°C° 0 mm 1 mps 756 mmHg 69%
    14:00 +8°C° 0 mm 1 mps 756 mmHg 71%
    15:00 +8°C° 0 mm 1 mps 756 mmHg 74%
    16:00 +7°C° 0 mm 1 mps 756 mmHg 76%
    17:00 +7°C° 0 mm 1 mps 756 mmHg 76%
    18:00 +6°C° 0 mm 2 mps 756 mmHg 76%
    19:00 +5°C° 0 mm 2 mps 756 mmHg 75%
    20:00 +5°C° 0 mm 2 mps 756 mmHg 76%
    21:00 +5°C° 0 mm 2 mps 756 mmHg 77%
    22:00 +5°C° 0 mm 2 mps 756 mmHg 78%
    23:00 +5°C° 0 mm 2 mps 756 mmHg 79%

    17 December, Tuesday

    Time Temperature Precipitation Wind Pressure Humidity
    00:00 +4°C° 0 mm 2 mps 755 mmHg 80%
    01:00 +4°C° 0 mm 2 mps 755 mmHg 81%
    02:00 +4°C° 0 mm 2 mps 755 mmHg 80%
    03:00 +4°C° 0 mm 2 mps 755 mmHg 79%
    04:00 +4°C° 0 mm 2 mps 755 mmHg 78%
    05:00 +4°C° 0 mm 2 mps 755 mmHg 79%
    06:00 +3°C° 0 mm 3 mps 755 mmHg 80%
    07:00 +3°C° 0 mm 3 mps 755 mmHg 81%
    08:00 +4°C° 0 mm 3 mps 756 mmHg 78%
    09:00 +5°C° 0 mm 3 mps 756 mmHg 76%
    10:00 +7°C° 0 mm 3 mps 756 mmHg 74%
    11:00 +8°C° 0 mm 3 mps 756 mmHg 72%
    12:00 +9°C° 0 mm 3 mps 755 mmHg 71%
    13:00 +10°C° 0 mm 3 mps 755 mmHg 69%
    14:00 +9°C° 0 mm 3 mps 755 mmHg 73%
    15:00 +8°C° 0 mm 3 mps 755 mmHg 76%
    16:00 +7°C° 0 mm 3 mps 755 mmHg 80%
    17:00 +7°C° 0 mm 3 mps 755 mmHg 80%
    18:00 +7°C° 0 mm 3 mps 755 mmHg 80%
    19:00 +6°C° 0 mm 4 mps 755 mmHg 80%
    20:00 +6°C° 0 mm 4 mps 756 mmHg 81%
    21:00 +5°C° 0 mm 4 mps 756 mmHg 82%
    22:00 +5°C° 0 mm 3 mps 756 mmHg 83%
    23:00 +5°C° 0 mm 3 mps 756 mmHg 83%

    18 December, Wednesday

    Time Temperature Precipitation Wind Pressure Humidity
    00:00 +5°C° 0 mm 3 mps 756 mmHg 84%
    01:00 +5°C° 0 mm 3 mps 756 mmHg 85%
    02:00 +5°C° 0 mm 3 mps 756 mmHg 86%
    03:00 +5°C° 0 mm 3 mps 756 mmHg 87%
    04:00 +4°C° 0 mm 3 mps 757 mmHg 88%
    05:00 +4°C° 0 mm 3 mps 757 mmHg 89%
    06:00 +4°C° 0 mm 3 mps 757 mmHg 89%
    07:00 +4°C° 0 mm 3 mps 757 mmHg 89%
    08:00 +6°C° 0 mm 2 mps 758 mmHg 87%
    09:00 +7°C° 0 mm 2 mps 758 mmHg 84%
    10:00 +7°C° 0 mm 2 mps 758 mmHg 82%
    11:00 +9°C° 0 mm 1 mps 758 mmHg 80%
    12:00 +10°C° 0 mm 1 mps 758 mmHg 79%
    13:00 +10°C° 0 mm 1 mps 758 mmHg 78%
    14:00 +10°C° 0 mm 1 mps 758 mmHg 80%
    15:00 +9°C° 0 mm 1 mps 759 mmHg 82%
    16:00 +9°C° 0 mm 1 mps 759 mmHg 83%
    17:00 +9°C° 0 mm 1 mps 759 mmHg 83%
    18:00 +7°C° 0 mm 2 mps 759 mmHg 83%
    19:00 +7°C° 0 mm 2 mps 759 mmHg 84%
    20:00 +7°C° 0 mm 2 mps 759 mmHg 83%
    21:00 +7°C° 0 mm 2 mps 759 mmHg 83%
    22:00 +7°C° 0 mm 2 mps 760 mmHg 83%
    23:00 +6°C° 0 mm 2 mps 759 mmHg 84%
    Show more